Precipitable_Water
0.37 0.38 0.38 0.38 0.38 0.37 0.36 0.35 0.36 0.38 0.41 0.44 0.45 0.46 0.48 0.49 0.50 0.51 0.52 0.52 0.52 0.52 0.53 0.52 0.52 0.51 0.50 0.50 0.50 0.50 0.49 0.42 0.41 0.40 0.36 0.37 0.38 0.40 0.40 0.43 0.43 0.44 0.42 0.38 0.35 0.31 0.29 0.29 0.29 0.32 0.31 0.31 0.31 0.29 0.36 0.36 0.38 0.36 0.27 0.23 0.20 0.22 0.21 0.23 0.22 0.24 0.26 0.25 0.29 0.32 0.33 0.32 0.30 0.35 0.36 0.41 0.39 0.40 0.40 0.38 0.41 0.42 0.42 0.45 0.49 0.51 0.52 0.55
0.36 0.37 0.37 0.37 0.38 0.39 0.39 0.40 0.41 0.42 0.44 0.46 0.48 0.49 0.50 0.51 0.51 0.52 0.52 0.53 0.53 0.53 0.54 0.53 0.52 0.50 0.49 0.48 0.49 0.48 0.44 0.41 0.38 0.37 0.36 0.40 0.43 0.43 0.44 0.46 0.46 0.42 0.41 0.32 0.30 0.30 0.28 0.27 0.29 0.29 0.27 0.25 0.30 0.25 0.31 0.30 0.36 0.29 0.26 0.23 0.18 0.21 0.21 0.26 0.25 0.25 0.24 0.24 0.28 0.29 0.32 0.33 0.31 0.36 0.39 0.33 0.33 0.36 0.35 0.40 0.42 0.40 0.42 0.45 0.47 0.49 0.52 0.53
0.37 0.37 0.38 0.38 0.39 0.41 0.42 0.44 0.45 0.46 0.47 0.48 0.49 0.49 0.50 0.50 0.51 0.52 0.52 0.53 0.54 0.53 0.52 0.51 0.49 0.47 0.45 0.46 0.46 0.46 0.41 0.40 0.38 0.34 0.38 0.42 0.42 0.43 0.44 0.44 0.41 0.40 0.34 0.29 0.31 0.30 0.27 0.26 0.29 0.28 0.25 0.23 0.24 0.22 0.27 0.26 0.30 0.31 0.26 0.21 0.20 0.23 0.24 0.24 0.24 0.22 0.23 0.23 0.26 0.28 0.30 0.31 0.32 0.34 0.37 0.29 0.29 0.33 0.32 0.34 0.38 0.37 0.36 0.39 0.44 0.48 0.49 0.51
0.40 0.40 0.42 0.43 0.43 0.44 0.44 0.45 0.46 0.47 0.47 0.47 0.47 0.49 0.49 0.50 0.50 0.51 0.52 0.52 0.52 0.52 0.50 0.47 0.45 0.43 0.42 0.43 0.44 0.45 0.40 0.34 0.30 0.34 0.38 0.40 0.39 0.40 0.40 0.40 0.39 0.37 0.34 0.32 0.31 0.31 0.32 0.30 0.27 0.25 0.23 0.21 0.21 0.23 0.21 0.25 0.23 0.28 0.27 0.22 0.22 0.25 0.22 0.23 0.23 0.22 0.22 0.25 0.25 0.25 0.28 0.26 0.31 0.33 0.32 0.29 0.27 0.28 0.31 0.37 0.37 0.36 0.37 0.39 0.42 0.45 0.47 0.48
0.43 0.44 0.45 0.45 0.45 0.45 0.46 0.47 0.47 0.47 0.47 0.47 0.48 0.49 0.49 0.50 0.51 0.52 0.52 0.51 0.49 0.48 0.45 0.44 0.42 0.41 0.40 0.42 0.42 0.44 0.36 0.26 0.28 0.34 0.36 0.36 0.36 0.36 0.36 0.36 0.37 0.34 0.32 0.31 0.30 0.30 0.27 0.23 0.22 0.21 0.20 0.18 0.20 0.19 0.19 0.22 0.25 0.27 0.24 0.25 0.24 0.25 0.21 0.24 0.24 0.24 0.23 0.24 0.24 0.25 0.23 0.23 0.31 0.31 0.30 0.29 0.23 0.23 0.27 0.35 0.43 0.42 0.42 0.41 0.41 0.42 0.45 0.45
0.47 0.47 0.47 0.48 0.48 0.48 0.48 0.48 0.48 0.48 0.48 0.48 0.48 0.49 0.50 0.50 0.50 0.49 0.48 0.47 0.46 0.44 0.42 0.41 0.40 0.37 0.38 0.38 0.41 0.42 0.30 0.18 0.31 0.32 0.35 0.35 0.35 0.36 0.35 0.36 0.37 0.35 0.33 0.27 0.25 0.25 0.23 0.22 0.20 0.18 0.18 0.18 0.17 0.16 0.18 0.20 0.24 0.18 0.22 0.22 0.24 0.24 0.22 0.24 0.24 0.24 0.24 0.22 0.22 0.22 0.24 0.26 0.26 0.25 0.28 0.28 0.26 0.28 0.33 0.41 0.43 0.42 0.43 0.43 0.44 0.43 0.42 0.43
0.50 0.50 0.51 0.51 0.50 0.49 0.48 0.47 0.47 0.47 0.48 0.48 0.49 0.48 0.48 0.47 0.47 0.46 0.44 0.43 0.43 0.41 0.41 0.38 0.37 0.36 0.35 0.38 0.45 0.39 0.31 0.30 0.34 0.36 0.37 0.37 0.37 0.36 0.36 0.36 0.38 0.34 0.30 0.25 0.25 0.23 0.22 0.21 0.20 0.19 0.18 0.17 0.18 0.17 0.18 0.19 0.20 0.19 0.17 0.20 0.21 0.23 0.23 0.25 0.23 0.24 0.23 0.22 0.22 0.24 0.26 0.23 0.24 0.21 0.27 0.26 0.29 0.32 0.36 0.42 0.43 0.43 0.44 0.45 0.43 0.44 0.42 0.41
0.51 0.51 0.51 0.50 0.49 0.48 0.47 0.47 0.47 0.48 0.48 0.47 0.47 0.46 0.46 0.46 0.46 0.46 0.45 0.43 0.42 0.41 0.39 0.38 0.36 0.38 0.39 0.37 0.36 0.33 0.33 0.32 0.36 0.38 0.37 0.38 0.37 0.37 0.36 0.34 0.34 0.31 0.28 0.26 0.26 0.24 0.23 0.20 0.19 0.20 0.18 0.16 0.17 0.18 0.20 0.19 0.21 0.19 0.19 0.21 0.21 0.22 0.22 0.23 0.23 0.23 0.23 0.23 0.24 0.25 0.23 0.23 0.25 0.24 0.26 0.25 0.29 0.32 0.36 0.40 0.42 0.43 0.43 0.44 0.43 0.43 0.42 0.41
0.56 0.54 0.52 0.50 0.48 0.47 0.47 0.47 0.48 0.47 0.46 0.45 0.44 0.44 0.44 0.46 0.45 0.44 0.44 0.42 0.41 0.41 0.41 0.40 0.40 0.42 0.46 0.43 0.36 0.31 0.29 0.34 0.36 0.37 0.37 0.36 0.35 0.35 0.34 0.30 0.31 0.29 0.27 0.27 0.28 0.26 0.24 0.20 0.20 0.20 0.17 0.18 0.20 0.18 0.20 0.19 0.16 0.22 0.21 0.24 0.24 0.23 0.24 0.24 0.23 0.23 0.23 0.25 0.25 0.23 0.22 0.25 0.26 0.28 0.25 0.27 0.29 0.32 0.35 0.37 0.38 0.40 0.40 0.40 0.40 0.40 0.40 0.39
0.58 0.56 0.53 0.50 0.48 0.48 0.47 0.47 0.47 0.45 0.43 0.43 0.42 0.41 0.42 0.42 0.42 0.41 0.41 0.43 0.44 0.45 0.46 0.44 0.44 0.46 0.44 0.37 0.36 0.26 0.29 0.35 0.36 0.36 0.36 0.36 0.35 0.33 0.31 0.31 0.30 0.28 0.25 0.26 0.27 0.27 0.24 0.23 0.22 0.24 0.23 0.20 0.22 0.19 0.21 0.19 0.18 0.24 0.23 0.23 0.23 0.24 0.23 0.24 0.23 0.23 0.24 0.23 0.22 0.20 0.21 0.22 0.25 0.23 0.20 0.28 0.30 0.32 0.33 0.33 0.35 0.36 0.36 0.36 0.37 0.38 0.39 0.39
0.55 0.53 0.50 0.48 0.47 0.46 0.45 0.45 0.45 0.43 0.39 0.38 0.36 0.38 0.39 0.39 0.40 0.41 0.42 0.43 0.44 0.45 0.45 0.44 0.45 0.46 0.36 0.36 0.28 0.25 0.34 0.35 0.35 0.35 0.33 0.33 0.30 0.28 0.28 0.30 0.30 0.26 0.25 0.26 0.26 0.29 0.28 0.28 0.27 0.26 0.24 0.21 0.23 0.21 0.21 0.22 0.25 0.24 0.23 0.22 0.21 0.22 0.22 0.22 0.21 0.20 0.20 0.20 0.21 0.20 0.20 0.21 0.23 0.23 0.21 0.26 0.29 0.31 0.30 0.30 0.32 0.33 0.33 0.34 0.35 0.36 0.37 0.38
0.51 0.48 0.47 0.46 0.45 0.44 0.43 0.42 0.41 0.39 0.36 0.35 0.34 0.36 0.36 0.36 0.37 0.39 0.40 0.40 0.41 0.41 0.41 0.41 0.45 0.40 0.35 0.32 0.29 0.28 0.34 0.32 0.34 0.34 0.33 0.31 0.28 0.28 0.30 0.30 0.30 0.28 0.26 0.23 0.25 0.27 0.28 0.28 0.26 0.22 0.18 0.28 0.20 0.22 0.20 0.27 0.24 0.23 0.23 0.19 0.20 0.21 0.19 0.20 0.18 0.18 0.19 0.18 0.21 0.20 0.19 0.19 0.20 0.20 0.26 0.28 0.29 0.30 0.30 0.29 0.30 0.31 0.31 0.32 0.33 0.34 0.35 0.36
0.49 0.47 0.45 0.44 0.43 0.41 0.40 0.39 0.37 0.36 0.33 0.33 0.35 0.35 0.35 0.36 0.37 0.39 0.41 0.40 0.41 0.40 0.39 0.43 0.42 0.43 0.37 0.30 0.29 0.32 0.33 0.33 0.33 0.32 0.31 0.30 0.28 0.29 0.30 0.30 0.29 0.28 0.26 0.24 0.22 0.24 0.25 0.24 0.22 0.18 0.21 0.18 0.17 0.14 0.20 0.21 0.19 0.19 0.18 0.16 0.15 0.15 0.15 0.19 0.21 0.23 0.21 0.22 0.23 0.21 0.14 0.17 0.21 0.24 0.28 0.30 0.30 0.30 0.29 0.29 0.29 0.30 0.31 0.32 0.33 0.34 0.35 0.36
0.47 0.43 0.40 0.39 0.39 0.39 0.38 0.36 0.34 0.34 0.32 0.34 0.35 0.34 0.36 0.37 0.38 0.39 0.40 0.38 0.42 0.42 0.43 0.45 0.45 0.43 0.35 0.27 0.29 0.31 0.32 0.32 0.32 0.29 0.28 0.28 0.25 0.25 0.28 0.28 0.28 0.28 0.27 0.24 0.24 0.24 0.24 0.24 0.22 0.20 0.23 0.17 0.14 0.24 0.19 0.19 0.19 0.14 0.17 0.17 0.14 0.13 0.15 0.22 0.23 0.23 0.21 0.25 0.24 0.24 0.16 0.18 0.23 0.26 0.29 0.30 0.31 0.29 0.28 0.28 0.29 0.29 0.30 0.31 0.32 0.33 0.34 0.35
0.40 0.37 0.36 0.36 0.36 0.36 0.34 0.34 0.34 0.35 0.36 0.36 0.34 0.34 0.36 0.38 0.39 0.40 0.42 0.42 0.43 0.43 0.47 0.48 0.48 0.40 0.28 0.26 0.30 0.31 0.32 0.31 0.27 0.26 0.27 0.23 0.22 0.22 0.23 0.25 0.25 0.25 0.25 0.24 0.23 0.24 0.24 0.23 0.21 0.18 0.18 0.26 0.25 0.19 0.16 0.17 0.19 0.19 0.14 0.13 0.18 0.16 0.19 0.22 0.24 0.23 0.20 0.23 0.25 0.23 0.17 0.18 0.22 0.26 0.29 0.30 0.30 0.29 0.27 0.28 0.28 0.29 0.29 0.30 0.30 0.31 0.31 0.32
0.37 0.36 0.35 0.35 0.36 0.35 0.34 0.34 0.36 0.38 0.38 0.35 0.33 0.35 0.36 0.38 0.38 0.38 0.40 0.45 0.45 0.48 0.51 0.41 0.39 0.33 0.26 0.19 0.23 0.30 0.25 0.20 0.21 0.25 0.25 0.23 0.21 0.20 0.24 0.23 0.23 0.23 0.24 0.23 0.25 0.24 0.23 0.22 0.18 0.20 0.19 0.21 0.18 0.16 0.15 0.14 0.16 0.20 0.16 0.15 0.15 0.18 0.18 0.20 0.21 0.24 0.23 0.21 0.22 0.21 0.17 0.20 0.21 0.26 0.28 0.29 0.29 0.28 0.27 0.27 0.28 0.29 0.29 0.29 0.30 0.30 0.31 0.31
0.37 0.36 0.36 0.36 0.35 0.34 0.35 0.37 0.39 0.40 0.36 0.35 0.33 0.36 0.36 0.36 0.38 0.38 0.43 0.46 0.44 0.47 0.39 0.32 0.37 0.36 0.22 0.22 0.26 0.19 0.18 0.22 0.25 0.23 0.23 0.24 0.22 0.22 0.24 0.22 0.20 0.21 0.23 0.24 0.24 0.23 0.22 0.20 0.22 0.22 0.25 0.19 0.20 0.18 0.13 0.11 0.12 0.14 0.18 0.14 0.15 0.14 0.16 0.14 0.21 0.22 0.21 0.19 0.16 0.19 0.16 0.17 0.20 0.23 0.24 0.26 0.26 0.26 0.25 0.26 0.26 0.26 0.27 0.27 0.28 0.28 0.29 0.29
0.36 0.36 0.36 0.35 0.36 0.36 0.37 0.37 0.38 0.37 0.35 0.35 0.32 0.32 0.31 0.33 0.37 0.37 0.38 0.42 0.42 0.40 0.29 0.31 0.32 0.26 0.26 0.20 0.15 0.17 0.23 0.21 0.22 0.22 0.23 0.24 0.24 0.24 0.23 0.22 0.22 0.23 0.23 0.21 0.22 0.19 0.20 0.18 0.22 0.16 0.20 0.19 0.19 0.16 0.11 0.08 0.11 0.11 0.12 0.12 0.13 0.15 0.16 0.14 0.14 0.20 0.19 0.18 0.16 0.17 0.16 0.17 0.19 0.22 0.23 0.24 0.26 0.26 0.25 0.26 0.26 0.26 0.26 0.26 0.26 0.27 0.28 0.28
0.38 0.38 0.38 0.38 0.37 0.36 0.36 0.36 0.35 0.35 0.35 0.33 0.34 0.33 0.35 0.34 0.35 0.29 0.30 0.33 0.28 0.21 0.15 0.15 0.16 0.10 0.09 0.15 0.22 0.22 0.21 0.22 0.24 0.22 0.20 0.22 0.23 0.26 0.25 0.27 0.24 0.22 0.18 0.18 0.16 0.18 0.20 0.21 0.21 0.15 0.12 0.13 0.14 0.15 0.13 0.14 0.16 0.14 0.14 0.13 0.13 0.11 0.12 0.12 0.17 0.21 0.19 0.17 0.16 0.17 0.15 0.17 0.20 0.21 0.23 0.25 0.26 0.26 0.26 0.26 0.26 0.26 0.26 0.26 0.26 0.27 0.27 0.27
0.39 0.39 0.39 0.37 0.36 0.36 0.34 0.34 0.33 0.33 0.33 0.29 0.32 0.32 0.29 0.23 0.23 0.17 0.23 0.24 0.20 0.20 0.20 0.20 0.21 0.20 0.20 0.20 0.20 0.23 0.26 0.23 0.18 0.20 0.22 0.25 0.23 0.22 0.21 0.24 0.20 0.22 0.18 0.13 0.17 0.19 0.22 0.13 0.11 0.10 0.11 0.12 0.14 0.15 0.16 0.17 0.17 0.15 0.14 0.13 0.12 0.12 0.13 0.18 0.19 0.21 0.22 0.19 0.18 0.18 0.19 0.19 0.20 0.22 0.24 0.25 0.26 0.25 0.25 0.24 0.25 0.25 0.25 0.25 0.26 0.26 0.26 0.26
0.37 0.37 0.36 0.34 0.33 0.32 0.32 0.32 0.32 0.30 0.35 0.34 0.31 0.26 0.15 0.15 0.13 0.12 0.19 0.23 0.27 0.27 0.23 0.21 0.21 0.19 0.18 0.22 0.24 0.22 0.16 0.16 0.19 0.18 0.20 0.27 0.24 0.21 0.18 0.21 0.16 0.13 0.14 0.17 0.15 0.22 0.17 0.12 0.12 0.13 0.14 0.15 0.16 0.16 0.17 0.16 0.14 0.13 0.12 0.12 0.12 0.15 0.13 0.20 0.19 0.23 0.25 0.20 0.18 0.21 0.20 0.20 0.21 0.23 0.24 0.24 0.24 0.23 0.23 0.24 0.24 0.24 0.25 0.25 0.26 0.26 0.27 0.28
0.37 0.36 0.34 0.33 0.31 0.29 0.29 0.31 0.30 0.30 0.36 0.32 0.25 0.15 0.18 0.21 0.35 0.29 0.24 0.16 0.25 0.28 0.25 0.22 0.22 0.20 0.23 0.24 0.26 0.25 0.20 0.14 0.14 0.16 0.20 0.23 0.19 0.18 0.18 0.15 0.12 0.10 0.15 0.16 0.18 0.16 0.12 0.10 0.13 0.16 0.18 0.20 0.18 0.16 0.16 0.15 0.13 0.12 0.11 0.11 0.11 0.13 0.16 0.20 0.21 0.23 0.23 0.20 0.18 0.20 0.18 0.19 0.21 0.22 0.23 0.22 0.23 0.24 0.25 0.25 0.26 0.26 0.26 0.26 0.27 0.27 0.27 0.28
0.38 0.36 0.33 0.31 0.28 0.28 0.28 0.31 0.30 0.26 0.22 0.19 0.17 0.19 0.19 0.33 0.42 0.42 0.31 0.23 0.21 0.28 0.24 0.21 0.18 0.18 0.19 0.24 0.25 0.26 0.16 0.13 0.13 0.17 0.18 0.21 0.17 0.16 0.17 0.13 0.12 0.13 0.16 0.16 0.11 0.10 0.08 0.11 0.16 0.19 0.20 0.18 0.17 0.17 0.16 0.14 0.13 0.11 0.11 0.10 0.10 0.14 0.13 0.12 0.19 0.22 0.23 0.20 0.18 0.19 0.17 0.19 0.21 0.22 0.22 0.24 0.24 0.25 0.27 0.28 0.28 0.28 0.28 0.27 0.27 0.28 0.28 0.28
0.37 0.35 0.32 0.30 0.30 0.29 0.30 0.31 0.35 0.25 0.22 0.22 0.20 0.21 0.31 0.38 0.40 0.36 0.28 0.18 0.17 0.22 0.24 0.21 0.21 0.18 0.19 0.17 0.25 0.23 0.17 0.17 0.18 0.16 0.22 0.20 0.16 0.19 0.15 0.15 0.13 0.13 0.13 0.15 0.13 0.11 0.10 0.14 0.19 0.21 0.20 0.18 0.15 0.15 0.12 0.11 0.10 0.12 0.13 0.12 0.11 0.12 0.13 0.13 0.13 0.17 0.18 0.19 0.20 0.18 0.16 0.17 0.19 0.19 0.21 0.24 0.27 0.27 0.27 0.28 0.28 0.28 0.29 0.29 0.29 0.29 0.29 0.29
0.37 0.35 0.32 0.31 0.30 0.31 0.31 0.36 0.27 0.27 0.29 0.21 0.21 0.29 0.34 0.37 0.39 0.38 0.28 0.20 0.17 0.18 0.29 0.26 0.25 0.19 0.23 0.29 0.28 0.21 0.19 0.20 0.20 0.22 0.21 0.20 0.18 0.18 0.13 0.18 0.16 0.12 0.15 0.17 0.14 0.12 0.12 0.15 0.19 0.16 0.15 0.14 0.13 0.11 0.13 0.12 0.09 0.10 0.13 0.13 0.14 0.14 0.13 0.14 0.16 0.15 0.13 0.13 0.17 0.16 0.11 0.12 0.18 0.20 0.21 0.24 0.25 0.25 0.27 0.26 0.27 0.28 0.29 0.29 0.29 0.29 0.30 0.31
0.37 0.36 0.34 0.31 0.30 0.30 0.34 0.26 0.24 0.31 0.23 0.17 0.22 0.30 0.35 0.35 0.39 0.38 0.30 0.16 0.09 0.14 0.21 0.12 0.26 0.15 0.29 0.19 0.23 0.23 0.21 0.14 0.22 0.22 0.21 0.20 0.25 0.18 0.18 0.13 0.17 0.10 0.14 0.15 0.13 0.14 0.14 0.17 0.15 0.13 0.13 0.13 0.13 0.12 0.14 0.14 0.10 0.09 0.11 0.16 0.16 0.14 0.14 0.14 0.14 0.13 0.10 0.09 0.15 0.19 0.11 0.10 0.18 0.19 0.21 0.23 0.24 0.25 0.27 0.28 0.28 0.29 0.29 0.30 0.30 0.31 0.31 0.31
0.38 0.36 0.34 0.33 0.32 0.29 0.26 0.15 0.30 0.34 0.22 0.18 0.32 0.33 0.32 0.33 0.39 0.38 0.26 0.13 0.09 0.14 0.13 0.18 0.20 0.18 0.26 0.20 0.20 0.24 0.07 0.11 0.24 0.22 0.19 0.20 0.18 0.23 0.13 0.13 0.16 0.16 0.17 0.17 0.12 0.10 0.17 0.15 0.15 0.15 0.13 0.12 0.11 0.10 0.13 0.14 0.10 0.08 0.15 0.16 0.15 0.13 0.12 0.13 0.13 0.13 0.12 0.17 0.19 0.19 0.19 0.14 0.14 0.18 0.24 0.26 0.25 0.25 0.26 0.27 0.28 0.29 0.29 0.30 0.31 0.31 0.30 0.30
0.38 0.36 0.34 0.34 0.33 0.29 0.20 0.26 0.26 0.17 0.17 0.27 0.34 0.34 0.33 0.34 0.38 0.38 0.21 0.05 0.05 0.18 0.11 0.18 0.18 0.29 0.22 0.21 0.21 0.14 0.14 0.20 0.14 0.17 0.20 0.20 0.23 0.17 0.14 0.13 0.12 0.12 0.14 0.13 0.06 0.14 0.15 0.13 0.14 0.13 0.13 0.11 0.10 0.13 0.14 0.16 0.12 0.12 0.16 0.16 0.13 0.13 0.13 0.14 0.14 0.14 0.15 0.15 0.13 0.18 0.22 0.16 0.15 0.20 0.26 0.26 0.23 0.24 0.24 0.26 0.28 0.29 0.30 0.30 0.30 0.30 0.29 0.29
0.38 0.36 0.34 0.32 0.35 0.33 0.30 0.27 0.22 0.17 0.29 0.35 0.34 0.34 0.35 0.34 0.29 0.23 0.12 0.04 0.10 0.16 0.28 0.14 0.28 0.22 0.21 0.19 0.15 0.17 0.17 0.18 0.12 0.18 0.20 0.19 0.20 0.18 0.10 0.13 0.15 0.13 0.14 0.12 0.08 0.13 0.17 0.16 0.16 0.14 0.12 0.10 0.13 0.15 0.16 0.16 0.12 0.14 0.16 0.16 0.15 0.15 0.17 0.17 0.15 0.15 0.15 0.14 0.11 0.15 0.21 0.15 0.14 0.19 0.21 0.24 0.23 0.23 0.25 0.27 0.29 0.30 0.30 0.29 0.28 0.28 0.28 0.28
0.39 0.37 0.35 0.30 0.31 0.25 0.30 0.33 0.21 0.30 0.34 0.34 0.33 0.36 0.35 0.30 0.23 0.14 0.05 0.04 0.17 0.08 0.17 0.17 0.17 0.14 0.19 0.11 0.11 0.15 0.14 0.16 0.19 0.20 0.18 0.15 0.15 0.22 0.20 0.18 0.13 0.11 0.09 0.13 0.14 0.16 0.19 0.24 0.23 0.15 0.13 0.14 0.15 0.16 0.18 0.17 0.16 0.17 0.16 0.13 0.12 0.13 0.14 0.15 0.15 0.14 0.12 0.10 0.11 0.14 0.17 0.17 0.11 0.15 0.19 0.20 0.23 0.25 0.27 0.28 0.30 0.30 0.30 0.29 0.28 0.28 0.28 0.27
0.39 0.39 0.36 0.30 0.22 0.25 0.30 0.25 0.27 0.32 0.35 0.35 0.34 0.33 0.29 0.20 0.11 0.07 0.03 0.06 0.19 0.13 0.17 0.14 0.13 0.20 0.13 0.09 0.07 0.13 0.15 0.15 0.16 0.17 0.13 0.16 0.12 0.13 0.13 0.13 0.13 0.10 0.08 0.10 0.12 0.15 0.17 0.18 0.16 0.16 0.20 0.17 0.17 0.14 0.17 0.19 0.16 0.15 0.12 0.10 0.09 0.08 0.09 0.10 0.09 0.12 0.06 0.06 0.12 0.14 0.15 0.17 0.11 0.15 0.21 0.25 0.27 0.28 0.27 0.26 0.28 0.28 0.28 0.27 0.27 0.27 0.27 0.25
0.39 0.40 0.39 0.30 0.29 0.33 0.18 0.16 0.27 0.34 0.34 0.33 0.31 0.25 0.19 0.06 0.08 0.05 0.05 0.15 0.08 0.10 0.12 0.11 0.15 0.14 0.14 0.14 0.10 0.11 0.11 0.13 0.15 0.15 0.12 0.12 0.10 0.09 0.10 0.08 0.09 0.04 0.04 0.07 0.07 0.14 0.13 0.13 0.16 0.19 0.21 0.15 0.13 0.12 0.13 0.14 0.14 0.12 0.10 0.09 0.06 0.06 0.06 0.04 0.07 0.05 0.06 0.06 0.10 0.12 0.13 0.11 0.14 0.17 0.21 0.24 0.26 0.28 0.29 0.28 0.27 0.27 0.27 0.26 0.26 0.25 0.24 0.23
0.41 0.41 0.42 0.35 0.33 0.29 0.30 0.31 0.33 0.34 0.36 0.31 0.24 0.23 0.12 0.06 0.03 0.07 0.08 0.10 0.07 0.15 0.11 0.18 0.12 0.13 0.13 0.10 0.09 0.12 0.16 0.10 0.15 0.14 0.16 0.13 0.11 0.12 0.14 0.12 0.13 0.09 0.05 0.08 0.07 0.07 0.09 0.14 0.14 0.15 0.16 0.17 0.15 0.10 0.10 0.10 0.12 0.12 0.10 0.08 0.07 0.05 0.05 0.04 0.06 0.08 0.07 0.08 0.11 0.10 0.14 0.11 0.16 0.18 0.22 0.22 0.24 0.26 0.27 0.28 0.28 0.27 0.25 0.24 0.23 0.22 0.21 0.21
0.41 0.39 0.35 0.36 0.34 0.33 0.34 0.37 0.37 0.38 0.33 0.32 0.22 0.15 0.07 0.04 0.04 0.13 0.09 0.10 0.09 0.17 0.17 0.13 0.12 0.13 0.11 0.08 0.10 0.12 0.09 0.14 0.13 0.13 0.13 0.10 0.11 0.08 0.11 0.13 0.14 0.10 0.11 0.10 0.07 0.08 0.05 0.05 0.11 0.13 0.11 0.17 0.15 0.15 0.14 0.13 0.13 0.12 0.14 0.10 0.08 0.08 0.06 0.05 0.07 0.05 0.06 0.07 0.08 0.12 0.11 0.10 0.09 0.13 0.20 0.22 0.24 0.25 0.26 0.26 0.26 0.26 0.24 0.22 0.21 0.21 0.21 0.20
0.39 0.38 0.38 0.36 0.34 0.33 0.35 0.39 0.41 0.43 0.33 0.23 0.13 0.07 0.04 0.05 0.07 0.07 0.08 0.10 0.12 0.13 0.13 0.17 0.10 0.08 0.07 0.11 0.12 0.13 0.12 0.09 0.13 0.13 0.10 0.10 0.09 0.10 0.10 0.11 0.14 0.14 0.12 0.07 0.09 0.10 0.08 0.08 0.12 0.18 0.16 0.17 0.15 0.18 0.18 0.15 0.14 0.13 0.13 0.12 0.08 0.09 0.13 0.07 0.08 0.08 0.08 0.07 0.06 0.09 0.08 0.11 0.12 0.18 0.20 0.22 0.22 0.22 0.23 0.23 0.22 0.21 0.20 0.20 0.20 0.20 0.19 0.19
0.39 0.35 0.38 0.26 0.26 0.31 0.37 0.39 0.41 0.42 0.22 0.12 0.08 0.06 0.05 0.08 0.06 0.12 0.10 0.18 0.14 0.10 0.11 0.15 0.09 0.07 0.06 0.07 0.11 0.10 0.16 0.11 0.11 0.12 0.10 0.12 0.13 0.11 0.14 0.14 0.13 0.15 0.11 0.08 0.10 0.06 0.09 0.07 0.12 0.14 0.16 0.16 0.16 0.18 0.17 0.17 0.08 0.12 0.12 0.07 0.09 0.16 0.13 0.09 0.08 0.10 0.10 0.08 0.05 0.10 0.09 0.11 0.15 0.15 0.17 0.17 0.17 0.18 0.19 0.19 0.19 0.18 0.19 0.19 0.19 0.19 0.18 0.18
0.27 0.30 0.20 0.24 0.27 0.35 0.38 0.38 0.36 0.29 0.22 0.10 0.06 0.05 0.09 0.11 0.15 0.14 0.16 0.13 0.13 0.15 0.11 0.06 0.06 0.07 0.05 0.05 0.07 0.09 0.10 0.14 0.10 0.10 0.08 0.13 0.11 0.14 0.12 0.14 0.18 0.16 0.17 0.13 0.11 0.13 0.07 0.07 0.12 0.11 0.10 0.17 0.19 0.19 0.17 0.17 0.17 0.14 0.09 0.09 0.14 0.18 0.14 0.09 0.05 0.06 0.05 0.04 0.04 0.08 0.06 0.07 0.08 0.05 0.13 0.13 0.13 0.15 0.16 0.17 0.17 0.18 0.19 0.18 0.18 0.17 0.17 0.17
0.25 0.23 0.23 0.22 0.29 0.37 0.40 0.34 0.31 0.21 0.13 0.08 0.07 0.09 0.15 0.10 0.17 0.16 0.18 0.16 0.16 0.15 0.08 0.07 0.08 0.10 0.06 0.07 0.06 0.08 0.11 0.09 0.09 0.10 0.08 0.11 0.09 0.18 0.13 0.13 0.18 0.17 0.18 0.20 0.11 0.11 0.14 0.07 0.10 0.12 0.12 0.15 0.19 0.17 0.15 0.16 0.18 0.12 0.11 0.15 0.09 0.06 0.05 0.08 0.06 0.03 0.03 0.03 0.04 0.05 0.07 0.08 0.08 0.07 0.10 0.10 0.11 0.12 0.14 0.15 0.16 0.16 0.17 0.16 0.16 0.16 0.17 0.18
0.26 0.21 0.14 0.22 0.32 0.32 0.34 0.30 0.19 0.12 0.08 0.06 0.08 0.07 0.11 0.13 0.17 0.15 0.17 0.17 0.17 0.12 0.07 0.09 0.07 0.09 0.09 0.07 0.08 0.11 0.11 0.07 0.11 0.09 0.08 0.10 0.08 0.15 0.13 0.15 0.14 0.19 0.19 0.18 0.13 0.13 0.15 0.07 0.07 0.13 0.11 0.13 0.15 0.13 0.08 0.11 0.16 0.16 0.15 0.11 0.13 0.11 0.07 0.05 0.06 0.06 0.07 0.04 0.06 0.04 0.06 0.05 0.08 0.09 0.10 0.10 0.12 0.13 0.13 0.14 0.14 0.15 0.15 0.14 0.15 0.15 0.16 0.17
0.22 0.16 0.13 0.24 0.30 0.31 0.27 0.26 0.14 0.11 0.08 0.06 0.09 0.09 0.15 0.11 0.14 0.18 0.19 0.19 0.12 0.11 0.08 0.09 0.11 0.08 0.09 0.09 0.10 0.08 0.12 0.11 0.10 0.10 0.10 0.11 0.10 0.18 0.13 0.19 0.14 0.16 0.18 0.18 0.14 0.15 0.11 0.14 0.05 0.08 0.12 0.13 0.08 0.11 0.10 0.11 0.10 0.10 0.09 0.07 0.08 0.07 0.10 0.08 0.09 0.06 0.05 0.05 0.05 0.06 0.04 0.04 0.08 0.11 0.10 0.11 0.13 0.13 0.13 0.13 0.13 0.13 0.13 0.14 0.15 0.16 0.16 0.17
0.22 0.14 0.13 0.24 0.27 0.32 0.28 0.14 0.10 0.09 0.09 0.13 0.15 0.12 0.14 0.10 0.14 0.16 0.20 0.22 0.17 0.19 0.12 0.10 0.10 0.08 0.09 0.08 0.09 0.12 0.11 0.12 0.11 0.09 0.10 0.11 0.11 0.08 0.17 0.16 0.18 0.14 0.18 0.16 0.14 0.13 0.11 0.11 0.06 0.08 0.07 0.08 0.10 0.15 0.14 0.14 0.14 0.11 0.09 0.07 0.08 0.06 0.05 0.03 0.03 0.09 0.09 0.07 0.05 0.05 0.03 0.05 0.08 0.11 0.11 0.12 0.13 0.13 0.13 0.13 0.12 0.12 0.13 0.13 0.15 0.16 0.17 0.17
0.16 0.09 0.13 0.25 0.25 0.24 0.15 0.08 0.11 0.14 0.11 0.09 0.09 0.13 0.11 0.19 0.13 0.14 0.16 0.18 0.17 0.13 0.18 0.14 0.13 0.11 0.10 0.10 0.11 0.11 0.12 0.11 0.11 0.10 0.11 0.09 0.13 0.12 0.15 0.21 0.18 0.18 0.14 0.10 0.12 0.15 0.14 0.13 0.10 0.06 0.07 0.08 0.11 0.14 0.17 0.17 0.16 0.13 0.11 0.09 0.10 0.09 0.07 0.06 0.03 0.04 0.08 0.07 0.08 0.08 0.06 0.05 0.10 0.11 0.12 0.12 0.12 0.12 0.12 0.13 0.12 0.12 0.12 0.13 0.15 0.16 0.17 0.17
0.14 0.12 0.22 0.25 0.26 0.17 0.10 0.09 0.12 0.11 0.10 0.14 0.19 0.16 0.18 0.14 0.13 0.14 0.13 0.15 0.12 0.15 0.13 0.12 0.11 0.11 0.12 0.12 0.12 0.13 0.13 0.10 0.11 0.10 0.12 0.12 0.12 0.15 0.18 0.20 0.20 0.16 0.17 0.13 0.17 0.15 0.19 0.10 0.08 0.07 0.09 0.10 0.12 0.15 0.16 0.17 0.15 0.12 0.12 0.12 0.11 0.07 0.08 0.07 0.06 0.07 0.06 0.06 0.05 0.06 0.05 0.04 0.09 0.12 0.11 0.11 0.12 0.12 0.13 0.13 0.12 0.12 0.13 0.14 0.14 0.15 0.16 0.17
0.13 0.13 0.15 0.20 0.26 0.16 0.09 0.05 0.07 0.09 0.11 0.14 0.13 0.12 0.16 0.13 0.12 0.11 0.11 0.13 0.12 0.12 0.11 0.11 0.13 0.14 0.11 0.15 0.14 0.11 0.14 0.08 0.13 0.12 0.11 0.13 0.11 0.19 0.18 0.18 0.20 0.14 0.13 0.12 0.11 0.14 0.09 0.12 0.10 0.06 0.05 0.06 0.08 0.11 0.12 0.14 0.14 0.10 0.09 0.11 0.11 0.10 0.10 0.10 0.09 0.10 0.06 0.06 0.06 0.05 0.03 0.03 0.08 0.11 0.11 0.11 0.11 0.11 0.11 0.12 0.13 0.12 0.13 0.14 0.14 0.15 0.16 0.17
0.12 0.14 0.14 0.16 0.19 0.15 0.07 0.09 0.08 0.08 0.09 0.09 0.10 0.09 0.10 0.11 0.15 0.14 0.13 0.11 0.16 0.14 0.14 0.11 0.13 0.14 0.12 0.15 0.13 0.15 0.15 0.11 0.09 0.14 0.13 0.13 0.13 0.21 0.20 0.19 0.21 0.16 0.17 0.18 0.17 0.19 0.11 0.10 0.09 0.05 0.04 0.03 0.03 0.04 0.05 0.07 0.08 0.10 0.11 0.11 0.11 0.10 0.09 0.07 0.05 0.07 0.05 0.06 0.07 0.06 0.05 0.05 0.07 0.09 0.09 0.09 0.10 0.10 0.11 0.12 0.13 0.14 0.13 0.13 0.14 0.15 0.16 0.17
0.11 0.07 0.11 0.12 0.14 0.14 0.15 0.18 0.13 0.10 0.09 0.09 0.08 0.10 0.12 0.09 0.14 0.18 0.18 0.13 0.16 0.17 0.15 0.14 0.15 0.15 0.12 0.13 0.12 0.11 0.10 0.14 0.12 0.11 0.12 0.11 0.13 0.16 0.19 0.20 0.18 0.17 0.18 0.18 0.17 0.17 0.11 0.12 0.11 0.08 0.06 0.05 0.06 0.08 0.11 0.12 0.11 0.08 0.08 0.09 0.09 0.11 0.11 0.09 0.08 0.07 0.05 0.06 0.05 0.05 0.05 0.05 0.05 0.06 0.06 0.07 0.09 0.09 0.10 0.11 0.12 0.13 0.13 0.14 0.15 0.15 0.16 0.17
0.15 0.09 0.09 0.08 0.13 0.13 0.12 0.14 0.12 0.13 0.09 0.12 0.07 0.11 0.08 0.10 0.12 0.14 0.22 0.10 0.14 0.15 0.15 0.14 0.12 0.11 0.11 0.11 0.10 0.10 0.11 0.11 0.14 0.13 0.11 0.11 0.13 0.15 0.20 0.19 0.19 0.19 0.20 0.17 0.18 0.15 0.11 0.08 0.10 0.10 0.10 0.09 0.10 0.10 0.11 0.12 0.10 0.09 0.08 0.07 0.09 0.09 0.10 0.09 0.06 0.05 0.07 0.06 0.04 0.05 0.05 0.05 0.05 0.06 0.06 0.07 0.09 0.10 0.11 0.11 0.12 0.13 0.13 0.13 0.14 0.16 0.16 0.17
0.11 0.17 0.19 0.18 0.07 0.07 0.08 0.09 0.13 0.11 0.12 0.12 0.10 0.13 0.09 0.09 0.09 0.08 0.15 0.16 0.16 0.16 0.11 0.14 0.12 0.14 0.13 0.11 0.12 0.08 0.09 0.10 0.11 0.09 0.12 0.13 0.13 0.15 0.14 0.19 0.17 0.19 0.19 0.16 0.19 0.13 0.10 0.07 0.10 0.10 0.09 0.10 0.11 0.11 0.12 0.12 0.11 0.10 0.09 0.08 0.07 0.09 0.09 0.08 0.07 0.07 0.08 0.05 0.04 0.04 0.05 0.05 0.05 0.06 0.07 0.08 0.10 0.10 0.10 0.11 0.12 0.13 0.13 0.14 0.15 0.15 0.15 0.16
0.15 0.15 0.14 0.18 0.08 0.11 0.10 0.11 0.12 0.10 0.10 0.11 0.10 0.11 0.08 0.09 0.08 0.11 0.11 0.12 0.14 0.11 0.13 0.08 0.10 0.12 0.13 0.15 0.12 0.09 0.10 0.07 0.07 0.12 0.11 0.11 0.12 0.12 0.11 0.13 0.19 0.19 0.17 0.15 0.16 0.15 0.12 0.09 0.11 0.11 0.09 0.09 0.10 0.10 0.11 0.11 0.10 0.10 0.09 0.08 0.08 0.08 0.08 0.08 0.08 0.08 0.08 0.07 0.07 0.07 0.07 0.06 0.07 0.07 0.08 0.10 0.11 0.11 0.11 0.12 0.13 0.13 0.13 0.13 0.14 0.15 0.15 0.16
0.10 0.08 0.09 0.15 0.14 0.13 0.14 0.13 0.11 0.10 0.08 0.11 0.07 0.10 0.10 0.09 0.09 0.11 0.13 0.11 0.08 0.10 0.14 0.10 0.11 0.13 0.14 0.14 0.13 0.09 0.10 0.10 0.10 0.09 0.12 0.12 0.12 0.14 0.12 0.12 0.12 0.16 0.17 0.13 0.14 0.16 0.12 0.08 0.11 0.11 0.09 0.08 0.09 0.10 0.11 0.11 0.10 0.09 0.08 0.08 0.07 0.08 0.09 0.09 0.09 0.09 0.09 0.09 0.09 0.08 0.08 0.07 0.08 0.09 0.10 0.11 0.11 0.12 0.12 0.11 0.11 0.12 0.13 0.14 0.14 0.14 0.15 0.16
0.14 0.15 0.14 0.09 0.08 0.11 0.12 0.11 0.09 0.08 0.07 0.09 0.08 0.10 0.10 0.10 0.10 0.13 0.12 0.16 0.11 0.09 0.12 0.10 0.13 0.14 0.16 0.14 0.14 0.12 0.13 0.13 0.13 0.13 0.14 0.14 0.10 0.14 0.12 0.13 0.16 0.13 0.14 0.13 0.14 0.13 0.14 0.10 0.12 0.11 0.08 0.07 0.09 0.09 0.09 0.10 0.10 0.09 0.07 0.07 0.07 0.08 0.08 0.08 0.08 0.08 0.08 0.07 0.07 0.08 0.07 0.06 0.08 0.09 0.10 0.11 0.11 0.10 0.10 0.11 0.11 0.12 0.13 0.14 0.14 0.14 0.15 0.16
0.18 0.19 0.17 0.12 0.08 0.13 0.10 0.13 0.12 0.08 0.07 0.10 0.10 0.10 0.09 0.10 0.13 0.15 0.11 0.16 0.16 0.16 0.14 0.14 0.14 0.13 0.13 0.13 0.12 0.13 0.14 0.15 0.15 0.16 0.17 0.19 0.19 0.18 0.19 0.18 0.18 0.15 0.14 0.13 0.15 0.13 0.13 0.11 0.09 0.10 0.07 0.06 0.08 0.09 0.09 0.09 0.08 0.06 0.06 0.07 0.08 0.08 0.09 0.09 0.10 0.10 0.09 0.09 0.08 0.07 0.06 0.08 0.09 0.10 0.10 0.10 0.10 0.10 0.11 0.11 0.11 0.12 0.13 0.14 0.14 0.15 0.15 0.16
Wind_Speed
8 7 7 6 6 6 6 5 5 5 5 4 4 4 3 3 3 3 3 4 5 6 6 7 7 7 8 8 8 8 8 7 6 6 7 7 9 9 10 11 11 12 11 11 11 10 10 10 11 12 12 13 13 14 14 14 14 14 14 14 15 15 15 16 16 16 15 16 16 16 16 15 16 17 17 17 17 16 16 17 17 18 18 17 16 16 17 17
7 6 6 6 5 5 5 5 4 4 4 4 4 4 4 4 5 5 5 6 6 6 7 8 8 8 9 9 9 9 9 7 7 7 8 9 10 11 12 12 12 12 12 11 11 11 11 12 13 13 13 13 14 15 14 15 15 15 14 15 16 15 16 16 17 17 16 16 16 16 16 16 18 20 19 19 20 19 17 19 17 16 17 17 16 17 18 18
6 5 5 4 4 4 4 3 3 3 3 4 4 5 6 6 6 7 7 7 7 8 8 8 9 9 10 10 10 10 9 8 8 9 10 10 11 12 13 13 13 12 12 12 12 12 13 14 14 14 14 14 15 15 15 15 15 16 15 16 17 16 17 18 18 18 17 17 15 16 17 17 20 21 20 19 20 21 20 21 20 17 18 18 18 19 19 19
5 5 4 3 3 2 2 3 3 4 5 5 6 7 7 8 8 8 9 9 9 9 9 9 10 10 10 10 11 11 9 9 9 10 11 11 12 13 13 13 13 13 13 13 13 13 14 15 14 14 14 15 16 15 15 16 16 16 16 17 17 16 17 19 18 17 17 18 17 17 17 18 20 20 21 21 20 22 23 24 22 19 18 19 19 20 20 20
5 4 3 2 2 2 3 4 5 5 6 7 8 8 9 9 10 10 10 10 10 10 10 10 10 11 10 10 11 10 9 9 9 10 10 11 12 13 13 13 13 13 13 13 13 13 14 14 14 14 14 15 15 15 16 17 16 17 18 19 18 17 18 20 18 17 18 18 18 19 19 20 21 21 22 21 22 25 25 24 21 20 20 20 20 20 21 21
4 3 2 2 2 3 4 5 6 7 7 8 9 9 10 10 11 11 11 11 11 10 10 10 10 10 10 10 10 9 8 8 9 9 10 11 12 13 13 13 12 13 13 13 13 13 13 14 14 14 14 14 15 15 17 17 17 18 19 19 20 19 19 20 19 19 19 18 19 20 20 21 20 20 22 20 22 25 24 22 21 20 20 20 20 20 21 21
3 2 2 2 3 4 5 6 7 8 9 9 10 11 11 11 12 12 12 11 11 10 10 10 10 9 9 9 8 7 6 7 8 9 10 11 12 13 13 12 12 12 12 12 13 13 13 14 14 14 14 15 15 16 17 17 17 18 19 19 20 20 20 20 19 19 18 17 19 19 20 21 21 21 22 21 22 23 21 20 20 19 19 19 20 21 21 21
2 2 2 3 4 5 6 7 8 9 10 10 11 12 12 12 12 12 11 11 10 10 9 9 9 8 8 7 6 6 5 6 8 9 10 11 12 13 12 12 11 12 12 12 13 13 13 13 13 14 14 15 15 16 17 17 17 17 18 18 18 18 19 19 18 17 16 17 17 16 18 20 19 19 21 22 22 21 20 19 19 19 19 19 20 20 21 21
2 2 3 4 5 6 7 8 8 9 10 11 12 12 11 11 11 11 10 10 9 9 8 8 7 7 7 6 5 5 6 7 8 9 11 11 12 12 12 12 12 12 12 12 12 12 12 13 13 13 13 14 15 15 16 15 16 17 17 18 18 17 18 17 17 17 16 17 16 15 18 19 19 20 21 22 21 20 19 18 19 18 18 19 20 20 20 21
3 4 5 5 6 7 7 9 9 10 11 11 12 11 11 11 10 10 9 9 8 7 7 7 7 6 6 5 4 4 6 7 9 10 11 11 12 12 12 12 12 11 11 12 12 11 11 12 14 13 13 14 14 15 15 15 16 18 18 19 18 17 18 18 18 18 17 19 17 16 20 22 23 23 22 22 20 19 17 17 19 18 18 19 20 20 20 21
4 5 6 7 7 8 9 10 10 11 11 12 11 11 10 10 9 9 8 7 6 6 6 6 6 6 5 4 4 4 6 8 9 10 11 12 12 13 13 12 12 11 11 12 12 12 12 13 14 13 13 14 14 16 16 15 16 18 18 19 20 18 19 19 19 19 18 20 18 15 19 22 23 22 21 21 19 18 16 16 18 17 18 19 19 20 20 20
5 6 7 8 9 9 10 10 11 11 11 11 11 10 9 8 8 8 7 6 6 6 5 5 5 4 4 4 4 5 7 9 10 11 12 12 12 13 13 12 11 11 11 11 12 13 13 13 13 13 14 14 14 15 15 16 17 18 17 18 20 19 19 20 20 20 19 20 19 15 18 22 21 20 19 19 18 16 15 16 17 17 18 19 19 20 20 20
7 8 9 9 10 10 10 11 11 11 11 10 9 8 8 8 8 7 6 6 6 5 5 5 5 4 4 5 5 7 9 10 10 11 13 13 13 13 12 12 11 11 11 12 12 13 13 13 12 13 14 14 15 15 15 17 17 18 17 17 19 18 19 20 19 19 18 18 19 18 19 21 19 18 18 18 17 15 14 16 17 18 18 19 20 20 20 21
8 8 9 9 10 10 10 10 10 10 10 9 8 7 7 8 8 7 6 6 5 4 4 4 4 4 4 5 6 8 10 10 10 12 13 14 14 12 12 12 11 11 11 12 12 12 12 12 12 13 14 14 15 16 16 17 16 17 17 17 17 17 18 19 17 16 16 17 18 18 20 20 19 19 18 18 17 15 15 17 17 18 19 19 20 20 21 21
8 8 9 9 9 10 10 9 9 9 8 8 7 6 7 7 7 7 6 5 4 4 4 4 4 5 4 5 7 9 11 10 11 13 14 15 15 13 13 13 12 11 11 12 12 12 12 12 12 13 14 15 15 15 16 16 16 16 16 16 16 15 17 19 17 15 15 17 18 18 19 20 20 19 19 19 18 16 16 18 18 19 19 19 20 20 21 21
8 8 8 9 9 9 9 9 8 7 7 7 6 6 7 7 7 6 5 5 4 4 4 4 5 4 4 7 9 10 11 11 13 13 14 16 14 12 13 13 12 12 12 12 13 12 12 12 12 13 13 14 14 14 14 15 16 15 14 15 16 16 17 18 18 17 17 18 19 19 19 20 20 20 19 19 18 17 17 18 19 19 19 19 20 20 21 21
8 8 8 8 9 9 8 8 7 6 6 6 5 5 6 7 7 5 4 4 4 4 5 5 6 5 5 8 10 11 12 13 14 14 15 15 13 12 13 12 12 13 12 12 13 13 13 13 12 13 13 13 13 13 13 14 15 15 15 15 16 17 17 19 19 19 19 18 19 20 19 21 21 20 19 20 19 17 17 18 19 19 19 20 20 21 21 21
7 8 8 8 9 8 7 7 6 6 6 6 6 5 5 7 7 5 4 4 4 5 6 7 7 5 7 10 11 12 13 13 13 14 15 14 12 12 12 11 12 13 12 12 12 12 12 12 12 12 12 12 13 12 12 14 14 16 17 17 18 18 18 19 20 20 19 18 19 19 19 20 20 20 20 20 19 18 18 18 19 19 19 20 20 21 21 21
8 8 8 8 8 7 7 7 6 6 7 7 6 5 5 5 6 6 6 5 5 5 6 8 8 6 8 11 12 12 12 12 13 14 15 14 12 11 11 11 11 12 11 11 12 12 11 11 11 11 13 13 14 13 13 15 15 16 17 17 18 19 19 20 20 19 17 16 19 19 18 19 20 21 20 20 19 18 18 19 19 20 20 20 21 21 22 22
8 8 8 8 7 7 7 7 7 7 7 6 5 5 4 4 5 6 6 6 5 5 6 8 8 8 9 11 12 12 11 12 13 15 16 15 12 11 12 11 11 11 11 10 11 11 10 10 11 12 14 15 15 15 15 15 15 17 17 17 18 18 19 20 18 19 17 16 20 19 17 19 20 21 20 20 20 19 19 20 20 20 21 21 21 22 22 22
7 7 7 7 7 7 7 6 7 7 6 5 4 4 4 4 4 4 4 5 5 6 7 8 9 9 9 10 11 11 11 12 14 16 16 15 12 10 12 11 10 11 12 11 10 10 10 10 12 14 14 14 15 16 15 14 15 16 16 17 18 17 19 19 17 19 18 17 19 18 17 20 21 21 21 20 20 21 21 20 20 21 21 22 22 21 22 22
6 6 6 6 6 7 7 6 6 6 5 5 4 4 4 3 2 3 3 4 6 7 8 9 10 10 10 10 11 11 11 12 14 16 17 15 12 10 11 11 10 10 12 11 10 11 11 12 15 16 14 13 14 15 14 14 15 16 16 17 17 18 18 19 17 18 18 17 19 19 18 21 22 21 21 22 22 22 21 21 21 21 21 22 21 21 21 21
5 5 6 6 6 7 6 6 6 5 5 4 3 3 3 3 2 3 3 3 6 8 9 9 10 11 11 11 11 10 11 12 12 16 17 15 12 11 10 10 10 11 13 11 10 11 12 14 16 16 14 13 15 16 15 15 15 16 17 16 17 18 17 18 19 18 19 19 19 19 20 22 23 22 22 23 22 21 21 21 21 21 21 21 21 21 21 20
5 5 6 6 7 7 6 5 5 5 4 3 3 3 3 3 2 2 3 4 6 7 8 9 9 11 11 11 12 10 9 11 11 14 16 14 12 11 10 11 11 12 13 11 10 11 13 15 16 15 15 13 14 16 16 16 17 17 16 14 16 18 17 19 20 20 20 21 20 19 21 23 23 23 23 23 22 21 21 20 20 21 21 20 20 20 20 20
4 6 7 7 7 6 5 4 5 4 4 4 4 4 3 3 3 2 3 5 7 8 9 9 9 10 11 12 12 9 8 11 12 14 15 14 12 11 11 12 11 12 13 11 11 12 14 16 16 15 15 15 14 15 16 16 17 17 16 16 17 19 20 20 21 21 21 22 21 19 20 23 23 23 23 23 22 21 21 20 20 20 20 19 19 20 20 20
4 6 7 7 7 6 4 4 5 4 5 5 4 4 3 3 3 3 3 5 7 9 10 9 9 10 11 12 12 8 8 10 11 14 15 14 13 11 12 13 12 12 13 12 13 13 15 17 15 14 15 15 15 16 17 16 16 18 18 18 19 19 21 21 21 21 21 21 21 20 21 22 22 23 23 22 21 21 20 20 19 19 19 19 19 20 20 20
5 6 8 7 6 6 4 4 5 5 5 5 5 4 4 4 3 3 4 6 7 8 9 9 9 10 11 12 12 8 8 11 11 14 17 15 14 12 12 13 13 13 14 13 14 14 15 17 16 15 15 16 17 18 18 17 17 19 18 19 21 21 22 22 21 20 20 20 21 20 21 22 22 22 21 20 20 20 20 19 19 18 19 19 20 20 20 21
5 6 8 7 6 6 4 4 5 5 5 5 5 4 4 3 2 3 4 5 7 8 8 8 8 10 11 11 11 9 9 11 11 14 17 16 15 13 13 14 13 14 16 13 13 15 14 15 16 15 16 17 17 19 19 17 17 19 19 20 21 21 21 20 19 18 19 18 19 20 19 20 21 20 19 19 20 20 19 18 18 18 18 19 19 20 20 20
5 6 8 7 6 6 5 4 5 5 5 5 5 4 3 2 2 3 5 4 6 7 7 8 8 9 11 11 11 11 10 12 11 13 17 17 16 14 12 14 13 14 17 15 13 14 14 14 14 14 16 17 18 19 18 16 17 19 20 20 19 19 19 18 17 16 16 16 17 19 17 17 20 19 18 19 19 19 18 18 18 18 18 18 19 19 19 19
4 6 8 8 6 6 5 5 5 5 5 5 4 3 2 2 3 4 5 4 6 7 7 8 7 9 11 10 11 13 12 13 13 14 16 16 18 16 13 15 15 14 16 16 14 14 14 14 15 14 15 16 17 18 17 15 18 20 20 20 19 18 18 17 17 15 15 15 16 18 17 16 18 18 17 17 17 17 17 17 17 17 18 18 18 18 18 19
5 6 8 8 6 6 5 5 5 4 5 4 2 2 2 3 4 4 4 5 5 6 7 8 8 9 11 10 11 13 13 14 14 14 15 16 18 18 15 15 16 14 15 16 15 15 15 15 16 15 16 16 16 17 17 17 18 19 19 20 19 18 18 17 17 16 14 16 17 18 18 17 17 18 17 17 17 16 15 16 16 16 17 17 18 18 19 19
5 6 7 7 6 5 5 5 5 4 4 3 1 2 2 4 5 4 4 5 5 6 6 7 8 10 11 11 12 13 13 14 15 14 14 15 15 16 15 15 16 15 15 15 15 15 14 14 16 16 16 17 16 16 17 18 19 19 19 19 18 18 18 17 17 15 14 16 17 19 19 16 16 16 15 15 16 15 15 16 15 16 16 17 18 19 19 19
5 6 6 6 6 6 5 5 4 3 2 2 2 3 3 4 4 4 4 5 4 5 6 7 9 10 11 12 13 14 13 14 15 15 14 15 15 16 16 16 16 15 14 15 15 15 14 15 17 16 16 17 17 16 18 18 19 20 19 19 17 16 17 16 16 15 15 17 18 18 16 14 14 15 14 14 15 15 16 16 16 16 16 17 17 18 19 19
4 5 5 5 6 6 6 4 3 2 2 2 2 4 5 4 3 3 4 5 5 7 7 8 10 11 12 12 13 14 14 14 15 15 15 16 15 16 16 17 17 15 14 14 14 14 14 14 16 16 16 18 17 16 16 17 18 19 18 17 16 14 14 15 15 15 16 17 18 17 14 12 13 14 13 14 14 15 15 15 15 15 16 16 17 18 19 20
3 4 4 5 6 6 5 4 3 2 2 3 4 4 4 3 2 3 4 5 6 8 9 9 10 12 13 13 13 14 13 14 14 14 16 16 15 16 16 16 17 16 14 14 14 14 13 13 15 16 17 17 17 16 16 16 17 18 17 17 17 14 13 14 14 14 15 16 16 15 13 12 13 13 13 13 14 14 15 14 14 14 16 16 17 18 19 21
3 4 5 6 6 6 5 4 3 3 2 4 5 5 3 2 2 3 4 6 7 8 10 10 11 12 13 14 14 15 14 14 15 15 15 15 15 16 16 16 16 16 14 13 14 14 13 13 15 17 17 16 15 16 17 17 16 17 18 18 17 14 13 14 15 15 14 14 14 13 13 14 14 13 13 13 14 15 15 15 14 15 16 16 18 20 21 23
3 4 5 7 7 6 5 4 4 3 4 5 5 4 3 3 3 3 5 7 7 8 10 10 11 12 13 13 14 16 15 15 15 15 15 15 15 16 17 16 16 16 15 14 14 14 13 14 15 16 16 16 15 15 17 17 16 16 17 18 16 14 14 15 15 15 15 13 13 13 13 14 13 13 14 14 15 15 15 16 16 16 17 18 20 22 23 24
3 3 5 7 8 6 5 4 4 4 5 6 6 5 4 4 4 4 6 7 8 9 10 10 11 12 12 13 14 15 15 15 15 15 14 15 15 15 16 16 15 16 16 15 14 15 14 14 15 15 15 16 16 15 16 17 16 15 16 17 16 14 14 15 14 14 14 13 13 14 14 13 12 12 13 14 14 15 15 16 17 18 18 20 22 23 24 24
3 4 5 7 7 7 6 5 5 6 7 6 5 5 5 5 5 6 7 8 9 10 11 11 11 12 13 13 13 15 14 14 15 14 14 15 15 14 15 15 15 17 17 15 14 15 14 13 14 16 15 15 15 15 15 16 17 17 16 17 16 13 13 15 14 12 12 13 13 14 14 12 11 12 12 13 13 14 14 15 16 18 19 20 22 22 23 23
3 4 4 6 6 6 6 7 8 8 7 5 5 5 5 5 6 7 8 9 9 10 11 11 12 13 13 13 13 14 14 14 14 14 14 15 15 15 15 15 15 17 17 15 14 15 14 13 14 16 15 14 14 14 13 13 15 16 17 17 17 15 14 14 13 12 12 12 12 13 14 13 13 13 12 12 13 13 14 15 17 18 20 21 22 22 23 24
4 4 4 6 6 5 6 9 8 7 6 6 6 6 6 6 7 9 9 9 10 11 11 11 12 12 13 13 13 13 13 14 14 14 14 15 15 15 15 14 14 15 16 15 15 15 13 13 14 15 15 14 13 13 13 13 13 14 15 15 15 15 15 13 13 13 12 11 11 11 13 15 15 14 13 13 13 14 15 16 17 19 21 22 22 23 24 25
6 5 4 7 7 6 8 9 7 6 7 7 7 7 7 7 8 9 10 10 11 11 12 12 12 12 12 13 13 13 13 13 14 14 14 15 14 14 14 14 14 14 14 14 15 14 13 12 14 14 14 13 13 13 13 13 13 14 15 15 14 15 14 12 12 13 13 13 12 11 13 15 16 14 14 15 15 16 17 17 19 20 21 22 23 24 25 25
7 6 5 7 6 7 9 8 6 7 7 7 7 8 8 8 9 10 11 11 12 12 13 13 13 13 13 12 13 13 13 13 14 14 14 14 14 14 14 15 15 14 14 14 15 15 13 13 14 15 14 14 14 14 14 13 14 15 15 15 15 15 14 12 11 12 12 13 12 12 13 16 17 16 16 17 18 18 19 19 20 21 22 23 23 24 25 25
8 8 7 7 6 7 8 7 6 7 7 7 8 9 9 9 10 10 11 12 12 12 12 13 13 13 13 13 13 13 13 14 14 14 14 14 14 14 14 14 14 14 14 14 14 14 13 13 14 14 15 15 15 15 15 15 15 15 15 15 15 14 14 13 13 12 12 12 11 10 12 16 18 19 19 19 20 20 20 21 21 22 23 24 24 25 25 26
8 8 8 9 9 9 8 7 7 7 7 8 9 9 9 10 11 11 11 12 13 12 12 13 13 13 13 13 14 15 15 14 14 15 15 15 15 15 14 14 14 14 14 13 14 14 13 13 13 13 13 14 14 14 15 15 15 15 15 14 14 14 13 13 13 12 12 12 11 11 14 18 19 20 20 21 21 21 22 23 23 24 25 25 25 26 26 27
7 7 7 9 11 11 9 9 9 9 8 9 9 10 10 10 11 11 12 13 13 13 13 13 13 13 14 15 15 15 16 15 15 15 15 15 15 15 14 13 13 14 14 13 14 13 13 13 13 12 11 12 13 14 14 14 15 16 16 15 14 13 13 13 12 11 12 13 13 14 17 20 22 21 21 21 20 21 23 24 25 26 27 27 27 27 28 29
7 6 6 7 8 9 10 9 10 9 8 8 9 10 10 10 11 12 12 13 13 13 13 13 14 14 14 15 15 15 16 16 16 15 15 15 15 15 14 13 14 14 14 13 13 13 13 14 13 12 12 12 13 14 14 14 14 15 16 16 15 13 13 12 12 13 13 13 16 18 17 20 23 23 22 22 21 22 24 25 27 28 28 29 28 29 30 31
7 7 7 7 7 8 9 9 10 10 10 10 10 10 11 12 12 12 13 13 14 13 13 13 15 15 14 15 15 15 16 16 16 15 15 15 15 16 15 13 13 14 14 13 14 13 12 13 13 13 14 14 14 15 14 14 14 15 16 16 15 13 12 12 13 14 13 14 18 19 19 21 25 25 23 23 23 24 26 28 28 29 29 29 29 29 31 32
9 8 8 8 8 8 8 9 10 11 11 11 11 11 11 12 12 12 13 14 14 14 14 14 15 16 15 15 15 15 15 15 16 16 15 15 15 15 15 14 13 14 14 13 14 13 12 13 14 14 16 16 15 15 15 14 16 17 17 16 15 13 13 14 16 16 15 17 20 21 23 24 25 25 25 25 26 27 28 29 29 29 30 29 30 31 32 32
8 8 8 10 10 9 9 9 10 11 11 11 11 12 11 11 12 12 13 13 13 14 14 14 15 16 16 15 15 15 15 14 15 15 14 14 15 14 13 13 13 14 14 13 14 14 14 14 14 14 16 16 15 16 16 16 17 19 18 17 15 15 15 16 18 18 17 20 22 22 24 26 25 25 26 26 27 29 29 30 30 30 31 31 31 32 33 33
9 9 10 11 9 9 9 9 10 10 10 11 11 11 12 12 11 12 13 13 13 13 14 14 15 16 17 16 15 16 16 14 14 15 14 13 14 13 13 13 13 14 15 14 14 14 14 15 15 16 16 16 16 17 18 19 19 19 19 17 16 16 16 17 18 18 18 21 23 23 25 26 26 26 26 27 29 30 30 31 32 32 32 32 32 33 34 35
11 10 10 10 9 8 9 9 10 10 10 11 11 11 12 12 12 13 14 14 13 13 14 14 15 16 17 16 15 16 17 16 16 16 15 14 14 14 14 14 13 13 14 13 14 15 14 14 16 16 15 17 18 18 20 21 20 18 17 17 16 16 18 19 20 20 20 20 22 24 25 26 27 27 28 29 30 31 31 32 33 33 33 33 33 34 35 36
Wind_Direction
106 101 97 92 87 84 83 83 80 74 69 61 51 40 28 14 356 336 315 299 290 285 283 284 283 285 289 294 297 298 295 283 279 288 285 279 282 285 289 290 291 292 290 289 287 283 280 279 280 283 280 275 271 270 269 267 266 268 267 267 269 271 270 270 271 271 272 274 273 275 272 265 269 272 270 277 286 286 286 287 283 283 280 271 263 254 252 254
110 102 96 90 85 80 76 74 69 59 49 37 25 12 0 351 340 332 322 313 304 295 291 290 291 291 294 297 299 301 296 283 282 288 283 280 283 286 289 290 290 289 288 287 286 284 280 279 281 284 280 275 273 271 269 268 266 267 269 270 271 271 271 272 272 272 273 273 272 279 278 273 276 276 275 278 283 285 286 286 281 280 278 270 263 258 256 256
116 108 100 92 84 76 66 57 45 32 17 4 355 347 341 336 329 325 319 315 310 304 301 298 296 296 296 297 299 300 292 282 284 285 281 280 284 289 291 289 289 289 287 285 284 282 280 280 281 281 280 277 274 271 270 270 267 266 268 271 272 271 275 277 275 271 271 269 270 280 282 284 285 280 278 277 281 286 283 279 277 274 271 267 264 261 258 258
118 113 106 96 82 63 39 20 8 357 348 341 337 333 329 325 322 319 316 312 308 304 303 301 298 297 296 295 297 295 289 286 284 281 281 283 287 291 292 289 288 288 286 284 283 282 281 281 281 279 279 278 276 273 270 270 268 268 267 269 272 272 276 278 274 272 273 271 272 277 281 285 287 285 281 277 281 285 282 278 274 268 265 264 264 263 261 261
111 105 96 83 57 22 1 352 346 341 336 333 329 326 323 319 316 313 311 308 305 302 301 301 299 297 295 295 295 292 289 289 283 281 286 288 292 293 292 290 287 287 286 285 284 284 283 282 282 281 279 276 277 276 272 269 267 270 269 269 271 271 275 276 273 274 274 274 275 279 282 281 283 290 289 284 283 282 281 278 273 269 267 266 265 265 265 264
102 92 75 48 22 1 349 343 338 335 331 329 326 322 318 314 311 308 305 304 302 301 300 300 299 298 297 295 295 292 287 284 284 289 292 294 296 295 295 292 287 287 288 288 287 287 287 287 286 284 281 278 275 273 273 273 269 271 274 275 273 271 275 275 273 275 273 273 278 279 280 279 283 289 291 291 287 282 280 276 274 274 272 269 268 267 267 267
89 70 44 16 1 350 342 337 333 330 327 325 322 318 315 312 310 308 305 302 301 300 300 300 301 301 300 298 297 296 290 284 291 296 297 301 303 301 300 295 291 292 293 292 291 290 289 292 289 285 284 282 278 274 276 278 272 269 274 279 278 274 275 274 274 277 275 275 277 277 280 283 283 283 288 292 287 283 279 276 275 275 274 272 271 270 269 268
61 36 11 355 346 339 335 331 328 326 323 322 319 316 314 313 312 310 307 304 302 301 301 300 301 303 304 302 298 300 298 292 298 301 302 306 308 307 304 299 297 296 295 293 291 289 289 292 290 287 286 281 279 279 280 283 278 271 273 279 281 279 277 274 274 276 276 275 274 280 284 285 284 283 287 288 285 283 278 277 276 274 275 274 272 272 270 269
10 350 340 335 332 330 329 327 325 323 321 321 320 318 315 315 315 314 311 308 305 304 303 302 303 304 306 307 305 302 298 297 305 307 307 309 310 310 306 301 301 299 296 293 293 291 289 290 289 288 284 280 280 282 284 283 279 276 276 279 281 280 275 272 274 272 272 273 274 281 283 281 282 285 287 285 281 279 276 277 276 274 276 275 274 273 271 270
331 325 324 323 323 323 324 324 323 323 323 323 322 320 317 317 318 318 316 312 308 305 304 303 303 306 307 309 313 303 299 308 313 311 312 313 312 313 310 304 303 302 297 296 296 294 291 289 288 288 284 283 283 283 284 279 279 280 279 280 280 280 276 272 273 271 272 275 274 275 277 281 284 281 280 279 277 274 274 278 276 275 276 276 275 274 273 271
321 320 320 320 320 319 320 321 321 322 324 325 324 323 322 322 323 323 322 318 315 313 309 308 309 313 314 316 325 310 308 316 316 316 318 318 316 314 311 306 303 302 299 298 296 292 292 289 289 291 287 287 286 287 286 282 283 283 281 283 284 284 281 279 275 268 274 278 272 268 277 286 288 282 276 275 274 273 274 278 278 277 277 277 276 275 274 273
317 318 318 319 318 317 318 318 319 321 323 326 327 327 329 329 330 330 328 326 324 321 316 318 318 319 323 333 335 317 316 320 317 319 321 319 318 312 308 305 301 302 301 300 297 292 294 293 294 293 288 289 290 290 288 286 288 285 286 286 285 290 286 285 280 270 276 276 266 268 278 286 287 280 274 272 272 273 276 279 280 279 279 278 277 276 276 275
315 316 317 317 318 319 318 317 318 319 322 327 330 332 334 335 336 336 333 328 325 325 324 324 325 325 329 330 326 321 322 322 319 322 322 320 318 312 308 306 302 302 302 300 300 297 296 296 296 294 291 292 290 290 290 292 291 287 290 287 286 292 287 287 283 276 283 273 264 273 277 280 282 274 270 270 270 272 278 280 279 280 279 279 278 277 277 276
315 315 316 317 318 319 319 319 321 321 323 329 333 335 338 341 343 342 338 331 327 329 328 330 333 332 330 321 320 325 324 321 322 324 324 323 322 316 312 311 307 304 303 302 303 302 300 298 299 297 294 294 291 292 295 296 295 289 291 291 290 289 284 289 287 283 289 277 273 281 277 275 276 272 270 269 269 271 276 279 278 279 279 278 278 277 276 276
314 316 317 318 320 322 323 323 325 326 328 332 335 338 341 346 348 346 345 341 336 332 329 333 335 334 335 327 321 324 325 323 324 324 324 326 324 317 315 316 311 309 307 306 307 304 302 301 302 300 297 297 298 297 297 297 296 294 292 292 292 289 285 289 290 289 288 281 286 285 276 277 275 271 271 270 270 271 273 277 277 278 278 278 277 276 275 275
315 318 320 322 323 325 325 326 329 332 334 336 338 341 344 348 348 348 351 352 347 337 333 329 330 338 340 329 323 326 329 325 323 323 324 326 322 315 317 317 314 315 311 308 309 306 305 306 304 303 303 303 302 299 300 300 298 297 294 290 290 290 290 290 291 296 291 284 290 286 275 278 276 272 272 271 271 270 272 275 276 277 277 276 275 274 274 273
316 320 322 324 324 324 325 328 332 336 337 337 337 339 347 351 347 342 347 2 8 358 353 339 328 330 329 329 329 327 328 326 325 326 326 326 321 317 319 318 317 317 314 311 312 309 309 310 305 304 309 308 303 302 305 303 298 298 298 294 291 290 291 291 289 296 298 288 288 286 279 277 276 273 274 273 271 271 272 273 274 275 275 275 274 273 273 272
316 319 321 322 324 325 327 330 332 334 334 333 330 328 338 351 355 351 340 345 353 352 354 347 340 329 322 331 330 324 326 330 332 332 330 329 326 323 323 319 319 319 317 315 314 314 312 312 310 307 312 312 310 312 308 300 296 297 297 296 295 294 293 291 288 291 297 293 286 285 281 277 277 276 276 276 273 272 273 273 274 274 274 274 273 273 273 272
315 318 319 322 325 327 329 329 328 328 327 327 323 317 321 339 358 4 1 357 352 349 343 340 345 336 321 328 331 327 330 337 340 338 336 334 328 328 329 324 325 327 324 318 316 318 316 316 319 315 314 312 310 309 302 296 295 295 296 295 294 296 293 290 291 291 293 294 290 285 280 277 278 279 278 277 276 275 275 275 275 275 275 274 274 273 272 271
315 318 320 325 327 326 327 325 323 324 323 322 320 319 318 329 345 350 1 11 5 4 356 343 347 343 331 331 335 334 334 339 344 343 341 337 329 330 336 331 331 337 331 319 316 321 324 324 322 315 309 307 307 305 299 296 298 299 299 298 295 294 293 293 293 292 291 291 290 287 283 282 280 280 279 277 277 277 276 276 276 276 276 274 274 273 272 271
318 321 324 328 327 326 325 322 324 326 323 322 323 322 310 313 331 330 347 1 354 0 360 350 350 348 339 336 336 338 338 338 345 348 345 342 337 334 336 337 337 337 330 321 320 325 331 330 321 312 305 306 312 311 307 306 307 306 302 301 300 295 294 296 293 293 294 291 289 288 288 287 284 282 280 277 277 277 274 275 275 275 275 275 273 272 271 271
324 327 330 330 327 325 324 323 329 330 329 329 330 327 313 307 317 318 341 352 348 355 355 350 353 349 342 339 338 340 343 341 344 349 349 347 349 343 338 343 343 333 329 330 330 329 332 328 319 313 310 316 321 318 318 315 311 309 306 304 304 300 297 298 298 299 299 293 287 289 290 288 287 285 282 279 278 278 275 274 274 273 273 273 271 270 270 269
331 334 335 332 328 327 324 323 330 334 333 332 333 332 326 323 321 327 349 350 345 350 352 350 350 347 345 344 342 344 351 348 341 345 349 349 350 348 344 344 342 334 332 336 334 331 330 324 320 320 322 326 324 322 323 318 313 311 310 308 304 303 302 300 298 300 300 295 288 289 290 287 287 287 286 284 281 281 281 279 277 274 272 271 269 269 268 266
338 341 340 335 332 330 324 324 330 336 336 338 342 328 320 326 322 329 341 341 341 342 344 344 345 348 347 345 344 345 353 354 347 346 350 351 346 344 344 339 339 338 333 334 338 336 329 322 323 328 329 327 323 324 326 321 317 312 309 308 305 304 301 297 297 297 300 299 291 289 290 286 284 284 285 287 286 285 284 281 279 277 275 273 270 269 267 264
343 347 344 339 336 332 327 327 330 334 337 339 336 320 315 318 309 317 329 337 339 335 339 341 344 350 347 345 346 342 347 355 355 350 348 352 347 340 340 336 338 337 330 331 336 334 329 325 327 329 329 329 325 324 324 320 318 314 308 307 306 303 300 298 299 298 298 297 290 288 289 287 286 284 283 286 288 286 284 280 278 277 275 273 270 268 267 266
343 346 344 341 340 336 331 328 328 331 335 333 325 318 317 306 295 304 325 340 339 334 340 342 344 348 346 348 348 345 348 348 352 353 351 350 345 341 339 334 337 335 326 328 330 327 328 328 329 328 327 329 327 322 320 320 320 315 309 308 307 305 302 301 300 299 296 294 290 287 286 287 289 287 285 285 286 285 284 281 277 275 273 271 270 269 268 268
336 339 342 342 344 342 332 327 330 330 330 326 324 324 318 309 294 298 326 341 336 333 341 341 342 349 348 349 351 354 348 337 342 353 353 349 344 346 343 334 334 333 327 328 329 325 325 328 331 330 328 328 326 322 318 318 318 312 308 310 310 308 306 303 301 298 294 295 296 290 286 289 291 289 287 286 285 284 283 282 278 274 272 270 270 270 270 270
329 333 340 343 348 351 340 331 334 331 328 326 328 328 319 315 296 311 343 346 332 335 342 339 344 352 352 354 359 2 349 339 343 346 349 351 345 345 346 339 333 331 332 334 328 323 325 329 329 329 329 327 324 321 317 317 317 310 309 311 311 309 307 306 305 302 299 300 302 297 290 291 294 293 291 287 284 284 281 280 279 273 270 270 271 272 272 273
325 332 341 342 343 349 345 339 337 333 330 331 334 329 324 334 325 342 358 342 332 340 341 343 347 347 350 355 357 358 351 347 346 341 347 353 348 342 340 340 336 332 337 339 331 325 326 326 324 327 330 326 322 321 319 320 318 315 315 316 316 316 314 315 315 311 310 308 306 304 296 291 294 293 290 288 286 284 281 280 279 274 271 272 273 273 275 277
325 333 342 342 336 337 339 338 338 334 332 334 335 337 358 9 357 360 354 332 337 343 342 350 349 343 350 352 347 349 350 346 344 344 348 352 352 348 338 336 339 337 337 339 337 330 326 326 326 329 329 323 322 325 324 322 319 320 324 323 322 323 321 321 321 319 318 311 305 308 302 292 295 294 288 289 289 285 283 283 282 278 275 274 274 276 278 281
327 334 343 346 341 337 337 336 335 333 334 336 342 11 31 4 359 14 353 331 341 347 348 351 346 346 352 351 344 344 344 342 342 346 345 344 349 350 342 336 338 338 337 338 337 332 330 332 330 327 326 327 329 330 328 327 326 327 329 328 327 325 324 325 324 324 322 309 302 309 308 296 294 296 292 292 293 289 285 285 283 279 276 276 277 279 281 283
328 337 346 353 353 348 344 334 332 335 338 350 24 24 19 1 0 6 344 338 345 346 347 344 341 346 347 346 346 341 339 340 343 346 343 340 343 346 345 341 337 337 338 338 336 332 329 330 330 327 328 334 336 333 332 332 333 334 333 335 333 327 327 328 324 323 319 308 305 313 314 302 296 299 298 296 297 294 291 288 282 277 276 278 278 280 282 284
330 341 352 360 4 359 351 341 342 351 354 26 43 7 13 14 1 352 345 351 352 343 344 341 340 343 344 346 344 339 340 341 341 343 341 340 343 344 346 344 342 340 337 337 339 337 331 328 333 335 332 337 340 337 335 333 335 337 337 339 336 331 333 329 324 326 322 314 314 319 318 309 306 308 304 301 300 298 297 291 283 279 278 279 280 281 284 285
338 352 0 6 7 0 356 355 4 22 26 42 33 10 22 25 2 1 358 350 348 346 344 341 340 342 345 347 341 338 341 340 341 344 341 341 344 343 343 344 345 344 342 341 340 340 336 330 335 338 334 336 339 338 337 334 335 337 339 343 341 338 338 330 326 327 322 318 321 326 324 315 314 315 309 306 305 305 305 298 290 286 285 285 286 286 287 288
354 5 11 8 2 0 5 14 29 39 42 47 34 25 37 32 360 11 359 342 347 346 340 341 346 346 344 342 340 341 342 338 341 345 343 343 345 343 343 343 344 346 347 345 340 340 340 330 331 334 334 338 340 336 338 341 339 338 343 348 344 340 341 337 330 325 324 326 327 329 327 319 318 319 315 315 313 311 311 307 298 293 291 291 291 290 290 292
21 18 18 10 5 9 17 22 30 37 48 51 39 34 49 44 15 17 360 349 352 347 341 342 347 348 342 339 341 343 341 340 343 345 343 344 345 345 344 342 344 347 349 348 343 342 343 335 335 339 338 340 341 337 341 345 342 342 348 348 342 340 347 346 338 335 341 341 334 334 330 325 327 325 320 321 319 314 313 310 302 296 295 294 292 292 293 294
38 27 26 20 18 21 24 28 36 48 56 54 52 53 56 43 26 13 359 353 349 349 352 348 343 346 344 341 341 341 341 342 343 345 345 344 344 346 345 342 345 348 346 346 345 343 343 336 337 343 342 339 341 341 342 347 349 350 351 348 345 346 350 350 345 345 352 348 338 338 333 328 332 329 324 323 317 312 310 308 304 301 298 295 293 294 295 295
52 45 41 27 22 26 34 42 49 65 66 56 59 65 54 36 20 5 357 354 349 352 358 351 345 346 346 343 340 339 342 344 343 346 348 346 345 347 347 343 344 348 345 345 346 345 346 340 336 341 342 339 343 347 344 347 353 356 353 351 353 353 347 348 350 349 350 348 342 340 338 334 330 326 325 320 313 310 309 309 307 303 299 296 296 296 297 297
62 59 45 23 22 34 45 57 63 67 65 57 58 58 44 29 14 2 359 356 353 357 357 350 346 348 347 346 342 340 343 346 345 348 350 348 346 348 349 344 342 346 347 348 348 344 346 346 339 339 342 341 346 351 348 346 350 355 355 354 356 356 347 347 350 350 349 348 345 344 346 342 332 329 328 319 314 313 311 311 308 302 299 299 299 300 300 300
71 69 47 22 27 42 51 62 63 58 57 59 61 50 34 25 11 2 0 356 354 357 355 350 349 348 346 346 345 343 346 347 348 351 350 349 347 346 348 346 343 344 346 349 351 346 346 348 341 340 345 348 347 348 349 348 349 352 355 355 355 354 351 350 349 349 351 349 346 347 346 338 333 335 331 321 318 316 311 311 308 303 301 301 301 302 302 303
74 73 48 24 29 45 59 62 58 52 55 56 52 42 30 24 14 5 2 359 357 357 355 353 352 350 348 349 347 345 348 349 351 352 350 348 349 347 345 346 345 344 346 350 350 347 346 347 344 343 347 349 345 343 346 346 347 351 354 355 355 354 356 357 350 345 349 347 344 346 341 331 332 338 333 326 323 317 310 309 308 304 302 302 303 303 303 304
75 73 47 31 42 65 71 63 49 48 57 51 43 39 29 23 18 9 5 4 1 358 358 356 354 352 351 350 349 348 351 351 351 352 350 347 349 346 344 348 347 345 348 348 345 345 347 350 349 344 343 343 341 345 350 348 349 353 352 353 356 356 358 0 350 342 344 342 339 344 340 331 333 338 334 328 323 317 312 309 307 306 305 305 305 305 305 305
75 73 52 41 57 75 73 61 43 45 51 45 39 36 28 23 18 11 7 5 1 358 359 356 354 354 353 352 353 353 353 352 350 351 350 347 346 344 344 348 348 348 350 348 345 345 347 350 350 345 344 345 345 349 353 352 353 352 349 351 353 351 354 354 346 343 343 338 339 345 338 330 333 336 332 327 323 320 317 313 309 308 309 309 308 308 308 307
77 72 58 50 61 73 72 68 59 53 49 45 41 32 25 23 19 13 8 5 1 1 1 357 356 356 355 356 357 354 353 354 351 351 351 350 347 345 345 347 349 349 350 348 347 347 346 348 351 350 349 350 350 352 351 349 350 348 345 348 349 352 357 352 346 348 343 335 338 343 332 327 333 336 332 327 325 321 316 313 311 310 311 311 310 310 309 309
75 70 62 57 62 70 74 78 76 64 52 48 42 30 24 22 17 12 9 6 4 4 2 359 358 358 358 359 359 355 355 355 351 351 352 351 348 347 346 346 347 348 347 347 348 348 346 347 352 354 352 349 346 344 344 343 344 345 345 344 344 349 353 346 345 348 340 333 335 332 325 325 330 332 330 327 325 320 315 312 312 311 310 310 310 310 309 309
77 73 66 60 63 68 70 71 70 63 53 49 39 28 26 21 12 10 11 9 7 6 5 3 1 1 1 2 360 355 354 354 354 354 354 350 347 346 346 346 346 345 346 349 349 351 350 347 347 351 349 344 338 335 339 344 341 340 340 338 337 342 347 347 345 338 332 333 327 319 320 323 324 326 327 324 321 317 315 313 312 310 309 308 308 308 309 309
80 79 76 70 66 65 62 59 59 55 49 46 37 27 25 19 11 10 11 9 9 9 8 7 6 5 2 2 360 354 352 354 355 355 353 349 346 346 346 347 347 345 347 350 349 353 353 345 343 346 340 336 335 332 336 342 337 334 335 333 332 335 340 340 331 324 330 334 323 318 321 322 321 323 323 320 318 317 315 313 311 311 310 309 308 309 309 310
80 83 81 78 74 68 61 56 57 54 45 40 35 28 24 20 15 13 10 9 10 10 9 8 6 4 1 0 0 357 354 356 354 352 352 350 348 349 349 347 347 348 349 350 349 354 354 345 343 344 338 335 334 331 333 337 334 332 332 329 328 329 328 322 318 320 325 321 316 318 320 318 318 322 321 317 317 316 314 313 312 312 312 311 309 309 310 310
86 85 76 72 74 75 68 61 60 55 42 35 33 27 25 23 17 12 10 11 9 8 11 8 2 360 359 0 4 360 356 357 354 349 351 351 349 351 351 347 347 349 350 350 348 352 352 344 342 343 339 336 333 331 334 337 334 332 329 325 324 323 318 314 315 318 316 310 311 314 314 313 317 320 318 315 314 314 314 314 314 313 312 311 309 309 310 310
89 87 82 77 72 69 64 56 53 49 37 31 31 26 24 24 18 11 12 14 11 7 10 9 1 358 359 2 5 360 352 354 353 348 351 353 349 349 349 347 347 348 350 350 348 349 349 343 344 346 341 337 336 335 336 335 331 328 326 325 324 323 320 317 318 319 316 312 313 314 313 314 318 319 316 314 315 316 316 314 312 312 311 311 310 310 311 311
91 91 91 84 67 55 55 49 46 46 34 27 30 26 22 20 17 16 13 12 12 9 9 8 3 1 4 5 2 355 351 353 350 346 349 351 348 347 347 346 347 347 347 347 346 346 347 343 344 348 340 333 336 338 333 331 330 325 322 323 324 322 322 321 319 318 316 314 315 315 315 316 320 320 317 315 316 316 314 312 312 312 312 311 310 311 311 311
92 88 83 77 62 50 53 47 40 41 34 27 29 27 22 19 17 19 15 10 9 9 8 8 8 6 6 2 357 353 353 352 348 345 346 346 344 344 342 342 343 343 343 345 343 342 345 343 341 343 335 328 333 336 332 332 333 328 324 324 322 320 321 321 320 316 314 315 315 314 314 317 320 320 318 316 316 315 313 313 312 312 312 311 311 311 311 312